Temp
-7 -7 -6 -6 -6 -6 -7 -8 -8 -9 -7 -7 -6 -6 -7 -6 -6 -6 -6 -6 -6 -6 -6 -7 -7 -7 -7 -7 -7 -7 -7 -8 -8 -7 -7 -7 -7 -7 -7 -7 -7 -7 -7 -6 -7 -6 -6 -6 -6
-7 -7 -6 -5 -6 -6 -7 -8 -9 -7 -6 -7 -7 -8 -7 -6 -6 -6 -6 -6 -6 -6 -6 -7 -7 -7 -7 -7 -8 -8 -8 -8 -8 -8 -7 -7 -7 -7 -7 -7 -7 -7 -7 -6 -6 -7 -6 -6 -6
-6 -6 -6 -6 -5 -6 -7 -8 -9 -7 -6 -7 -8 -7 -7 -6 -6 -6 -6 -6 -6 -6 -6 -7 -7 -7 -7 -7 -7 -8 -8 -8 -8 -8 -8 -8 -7 -7 -7 -7 -7 -7 -7 -7 -7 -7 -7 -6 -6
-6 -6 -6 -6 -6 -8 -8 -8 -8 -6 -6 -7 -6 -8 -7 -7 -6 -6 -6 -6 -6 -6 -7 -7 -7 -7 -7 -8 -8 -8 -8 -8 -8 -8 -8 -8 -8 -7 -7 -7 -7 -7 -7 -7 -7 -7 -7 -6 -6
-6 -6 -6 -8 -7 -8 -8 -7 -8 -9 -8 -10 -7 -7 -8 -7 -7 -6 -6 -6 -7 -7 -7 -7 -7 -7 -7 -8 -8 -9 -9 -9 -8 -8 -9 -8 -8 -8 -7 -7 -7 -7 -7 -7 -7 -7 -7 -6 -6
-6 -6 -6 -6 -7 -8 -8 -9 -9 -9 -7 -7 -9 -6 -8 -7 -7 -7 -7 -7 -7 -7 -7 -8 -7 -8 -8 -8 -8 -9 -9 -9 -9 -9 -9 -9 -8 -7 -7 -7 -7 -7 -7 -7 -7 -7 -7 -7 -6
-6 -7 -6 -6 -7 -8 -8 -7 -9 -8 -7 -8 -7 -7 -7 -7 -7 -7 -7 -7 -7 -7 -7 -7 -7 -8 -8 -8 -8 -9 -9 -9 -9 -9 -9 -9 -8 -8 -8 -8 -8 -7 -7 -7 -7 -7 -7 -7 -7
-6 -6 -7 -7 -7 -8 -8 -8 -7 -9 -6 -7 -7 -7 -7 -7 -7 -7 -7 -7 -7 -7 -7 -7 -7 -8 -8 -8 -8 -9 -9 -10 -10 -9 -9 -9 -10 -9 -8 -8 -8 -7 -7 -7 -7 -7 -7 -7 -7
-6 -6 -7 -7 -7 -8 -8 -8 -8 -7 -7 -6 -7 -8 -8 -7 -8 -8 -7 -7 -7 -8 -7 -7 -8 -8 -8 -8 -8 -8 -8 -9 -9 -9 -10 -10 -9 -9 -10 -8 -8 -8 -7 -8 -7 -7 -7 -7 -7
-6 -7 -6 -7 -6 -9 -9 -9 -8 -8 -7 -8 -8 -8 -7 -7 -7 -8 -8 -7 -7 -7 -8 -7 -8 -8 -8 -8 -8 -8 -8 -8 -9 -9 -9 -9 -8 -8 -9 -9 -8 -8 -8 -8 -7 -7 -7 -7 -7
-7 -7 -6 -6 -6 -7 -9 -9 -8 -9 -9 -8 -8 -8 -7 -7 -8 -8 -8 -7 -7 -7 -7 -7 -7 -8 -8 -8 -8 -8 -8 -8 -8 -8 -9 -8 -8 -8 -8 -9 -8 -8 -8 -8 -7 -7 -7 -7 -7
-7 -7 -6 -6 -7 -7 -9 -9 -9 -9 -9 -9 -8 -7 -8 -8 -8 -8 -8 -7 -7 -7 -7 -7 -7 -8 -8 -8 -8 -8 -8 -8 -8 -8 -8 -8 -8 -8 -7 -8 -8 -8 -8 -8 -7 -7 -7 -7 -7
-7 -7 -7 -6 -7 -7 -7 -8 -9 -8 -8 -8 -8 -8 -8 -8 -8 -8 -8 -8 -7 -7 -7 -8 -8 -8 -8 -8 -8 -8 -8 -8 -8 -8 -8 -8 -8 -8 -8 -8 -8 -8 -9 -8 -7 -8 -7 -7 -7
-7 -7 -7 -6 -7 -7 -7 -8 -9 -9 -8 -8 -8 -8 -8 -8 -8 -8 -8 -8 -8 -8 -8 -8 -8 -8 -8 -8 -8 -8 -8 -8 -8 -8 -8 -8 -8 -8 -8 -8 -9 -8 -8 -8 -8 -8 -8 -7 -7
-7 -7 -6 -7 -8 -7 -7 -8 -8 -8 -8 -8 -8 -8 -8 -8 -9 -8 -8 -8 -8 -8 -8 -8 -8 -8 -8 -8 -8 -8 -8 -8 -8 -8 -8 -8 -8 -8 -7 -8 -8 -8 -8 -8 -8 -8 -8 -7 -7
-7 -7 -8 -8 -7 -7 -7 -9 -9 -8 -8 -9 -9 -8 -8 -8 -8 -8 -8 -8 -8 -8 -8 -9 -9 -9 -9 -9 -9 -9 -8 -8 -9 -8 -8 -8 -8 -8 -8 -8 -8 -8 -8 -8 -8 -8 -8 -7 -7
-7 -8 -8 -8 -7 -7 -7 -8 -8 -8 -8 -9 -9 -9 -9 -9 -8 -8 -8 -8 -8 -8 -9 -9 -8 -8 -9 -9 -9 -9 -9 -9 -8 -8 -8 -8 -8 -8 -8 -8 -8 -8 -8 -8 -8 -8 -8 -8 -8
-8 -8 -8 -8 -8 -7 -8 -9 -9 -9 -9 -9 -9 -9 -9 -9 -8 -8 -9 -8 -9 -8 -8 -8 -9 -8 -9 -9 -9 -9 -9 -9 -9 -9 -9 -8 -8 -8 -8 -8 -8 -8 -8 -8 -8 -8 -8 -8 -8
-7 -7 -7 -8 -7 -7 -8 -9 -9 -9 -10 -10 -10 -9 -9 -9 -9 -8 -9 -9 -9 -9 -8 -8 -9 -9 -9 -9 -10 -10 -10 -9 -9 -9 -8 -8 -8 -8 -8 -8 -8 -8 -8 -8 -8 -8 -7 -8 -8
-7 -7 -7 -7 -7 -7 -7 -9 -9 -9 -10 -10 -10 -10 -9 -9 -9 -9 -8 -9 -9 -9 -9 -9 -9 -9 -9 -9 -9 -10 -10 -10 -10 -9 -8 -8 -8 -8 -8 -8 -8 -8 -8 -8 -8 -8 -8 -8 -8
-7 -7 -8 -8 -8 -7 -8 -8 -9 -8 -9 -9 -9 -10 -9 -9 -9 -9 -9 -9 -10 -10 -10 -9 -9 -9 -9 -9 -10 -10 -9 -9 -9 -9 -9 -8 -8 -8 -8 -8 -8 -8 -8 -8 -8 -8 -8 -8 -8
-7 -8 -7 -8 -8 -9 -9 -8 -8 -8 -9 -9 -9 -9 -9 -9 -9 -9 -9 -9 -10 -10 -10 -10 -9 -9 -9 -9 -9 -10 -9 -8 -8 -9 -9 -8 -8 -8 -8 -8 -8 -8 -8 -8 -8 -8 -8 -8 -8
-7 -8 -8 -8 -8 -9 -9 -9 -8 -9 -9 -9 -10 -9 -10 -9 -9 -9 -9 -9 -9 -9 -10 -10 -10 -9 -9 -9 -9 -9 -9 -9 -8 -8 -9 -8 -8 -8 -8 -8 -8 -8 -8 -8 -8 -8 -8 -9 -8
-8 -8 -8 -8 -8 -9 -9 -8 -8 -9 -9 -9 -9 -10 -10 -9 -9 -9 -9 -9 -9 -9 -9 -10 -10 -9 -9 -9 -9 -9 -9 -9 -9 -9 -8 -8 -8 -8 -8 -8 -8 -8 -8 -8 -8 -8 -8 -8 -8
-8 -8 -9 -9 -9 -8 -8 -8 -9 -9 -9 -9 -10 -10 -10 -10 -9 -9 -9 -9 -9 -9 -9 -10 -9 -10 -9 -9 -9 -10 -9 -9 -8 -8 -8 -8 -8 -8 -8 -8 -8 -8 -8 -8 -8 -8 -8 -8 -8
-7 -8 -9 -8 -8 -9 -9 -9 -9 -9 -9 -10 -10 -11 -10 -10 -10 -9 -8 -9 -9 -10 -9 -10 -9 -10 -10 -9 -9 -9 -8 -9 -8 -8 -8 -9 -9 -9 -8 -8 -8 -8 -8 -8 -8 -7 -8 -8 -8
-8 -7 -9 -9 -9 -8 -8 -8 -9 -9 -9 -10 -11 -10 -10 -10 -10 -9 -10 -9 -9 -10 -10 -10 -9 -9 -9 -9 -9 -9 -9 -8 -9 -8 -8 -9 -9 -9 -8 -8 -8 -8 -8 -8 -8 -8 -8 -8 -8
-8 -9 -9 -10 -9 -8 -8 -8 -9 -9 -9 -10 -10 -10 -10 -10 -10 -9 -9 -9 -9 -10 -10 -9 -10 -10 -9 -9 -9 -9 -9 -9 -8 -8 -9 -9 -9 -9 -9 -9 -8 -8 -8 -8 -8 -8 -8 -8 -8
-7 -8 -8 -9 -9 -8 -8 -8 -9 -8 -9 -9 -10 -10 -10 -10 -9 -9 -9 -8 -8 -9 -10 -10 -9 -10 -10 -9 -9 -9 -9 -9 -8 -8 -9 -9 -9 -9 -9 -8 -8 -8 -8 -8 -8 -8 -8 -8 -8
-10 -9 -9 -10 -9 -9 -9 -9 -9 -9 -10 -9 -10 -10 -10 -10 -9 -9 -9 -9 -9 -9 -9 -9 -9 -10 -10 -9 -9 -9 -9 -9 -9 -9 -9 -8 -9 -9 -8 -8 -8 -8 -8 -8 -7 -7 -8 -8 -8
Height
5903 5905 5906 5906 5908 5904 5909 5911 5911 5907 5904 5901 5900 5899 5898 5896 5895 5895 5891 5890 5889 5889 5889 5890 5890 5890 5890 5890 5891 5891 5892 5892 5893 5894 5895 5895 5897 5896 5896 5896 5897 5898 5899 5901 5902 5904 5906 5907 5908
5905 5906 5908 5908 5908 5908 5910 5909 5908 5906 5904 5902 5901 5902 5898 5896 5894 5892 5890 5889 5888 5888 5888 5888 5889 5888 5888 5888 5889 5890 5889 5891 5891 5892 5894 5895 5896 5897 5897 5896 5897 5898 5898 5901 5902 5904 5906 5908 5909
5907 5908 5910 5909 5906 5905 5911 5911 5907 5906 5904 5902 5901 5900 5899 5897 5895 5892 5889 5887 5887 5887 5887 5888 5887 5887 5887 5886 5886 5887 5888 5889 5890 5890 5892 5894 5894 5897 5897 5896 5897 5897 5898 5901 5902 5904 5905 5907 5909
5907 5909 5909 5908 5908 5914 5913 5911 5907 5906 5901 5901 5903 5895 5897 5894 5893 5892 5890 5888 5887 5887 5887 5887 5886 5886 5886 5885 5885 5885 5887 5887 5889 5888 5889 5891 5892 5895 5896 5897 5898 5897 5897 5900 5903 5904 5905 5907 5909
5908 5910 5907 5914 5918 5915 5913 5911 5908 5908 5905 5901 5900 5898 5895 5893 5891 5890 5888 5887 5886 5886 5887 5888 5887 5886 5886 5884 5884 5885 5884 5885 5885 5886 5887 5889 5890 5892 5894 5896 5897 5897 5897 5900 5902 5904 5905 5907 5909
5909 5909 5905 5912 5914 5915 5914 5913 5910 5908 5904 5902 5901 5896 5894 5893 5891 5889 5887 5886 5885 5885 5884 5886 5887 5886 5886 5885 5884 5883 5882 5882 5883 5883 5884 5887 5889 5891 5893 5894 5896 5897 5897 5899 5902 5904 5905 5907 5909
5909 5909 5908 5912 5914 5915 5912 5911 5914 5912 5906 5902 5899 5887 5890 5892 5890 5888 5887 5885 5884 5884 5883 5884 5884 5884 5884 5884 5882 5880 5880 5881 5881 5882 5884 5886 5888 5890 5891 5893 5895 5896 5896 5898 5901 5903 5905 5907 5908
5909 5909 5914 5916 5916 5916 5911 5910 5908 5908 5904 5901 5898 5881 5890 5892 5889 5887 5886 5884 5883 5882 5881 5881 5881 5881 5881 5880 5880 5879 5878 5879 5881 5882 5885 5887 5888 5891 5891 5892 5893 5893 5896 5897 5900 5902 5905 5907 5908
5909 5909 5916 5912 5914 5914 5914 5914 5906 5904 5901 5899 5896 5894 5892 5890 5888 5885 5884 5883 5881 5880 5878 5878 5879 5878 5878 5878 5877 5876 5878 5879 5880 5881 5884 5886 5888 5890 5891 5891 5891 5893 5895 5896 5898 5901 5904 5905 5907
5910 5912 5897 5914 5911 5913 5913 5909 5908 5905 5902 5900 5898 5893 5891 5889 5887 5885 5883 5880 5879 5877 5875 5875 5876 5876 5875 5876 5875 5874 5876 5878 5879 5881 5881 5880 5879 5881 5887 5888 5891 5892 5892 5894 5897 5899 5901 5903 5906
5910 5912 5914 5913 5911 5910 5911 5912 5908 5906 5904 5863 5877 5891 5890 5888 5886 5884 5882 5879 5877 5875 5873 5872 5873 5872 5873 5874 5873 5874 5875 5876 5878 5877 5876 5876 5873 5876 5883 5885 5888 5889 5891 5893 5895 5897 5899 5901 5903
5913 5913 5913 5913 5911 5909 5910 5910 5909 5906 5903 5899 5896 5891 5891 5888 5886 5884 5882 5878 5876 5873 5872 5871 5870 5870 5870 5870 5869 5871 5872 5873 5874 5875 5874 5874 5873 5876 5879 5881 5885 5884 5888 5890 5892 5894 5897 5900 5902
5911 5911 5912 5911 5911 5909 5907 5906 5906 5902 5899 5898 5896 5894 5892 5889 5886 5884 5881 5878 5876 5873 5870 5869 5868 5867 5866 5866 5867 5867 5869 5869 5871 5872 5872 5871 5872 5871 5871 5874 5879 5881 5885 5888 5890 5893 5895 5898 5900
5910 5910 5910 5910 5909 5909 5907 5904 5904 5900 5899 5898 5897 5894 5892 5889 5887 5884 5882 5879 5875 5872 5869 5867 5865 5864 5864 5863 5863 5864 5866 5866 5867 5868 5868 5867 5866 5866 5869 5869 5872 5879 5880 5885 5887 5890 5892 5895 5898
5908 5909 5908 5907 5909 5908 5906 5899 5882 5897 5897 5897 5896 5894 5891 5889 5887 5884 5882 5879 5875 5871 5868 5865 5862 5860 5859 5859 5858 5859 5860 5861 5862 5862 5863 5863 5862 5863 5865 5865 5868 5873 5876 5878 5880 5887 5890 5892 5895
5907 5907 5906 5911 5908 5906 5906 5896 5891 5897 5896 5895 5894 5893 5890 5887 5886 5884 5881 5878 5875 5870 5866 5863 5859 5858 5857 5856 5855 5854 5855 5856 5857 5857 5857 5858 5859 5858 5859 5861 5864 5867 5871 5873 5877 5880 5887 5890 5892
5905 5907 5906 5910 5906 5905 5904 5905 5900 5897 5895 5893 5892 5891 5889 5886 5884 5881 5879 5877 5874 5869 5864 5861 5858 5856 5854 5852 5851 5850 5849 5850 5851 5852 5852 5853 5853 5855 5856 5857 5860 5863 5866 5869 5872 5877 5882 5886 5889
5909 5908 5909 5906 5904 5903 5901 5902 5900 5895 5893 5892 5890 5888 5886 5883 5882 5879 5876 5874 5872 5868 5864 5861 5858 5855 5852 5850 5847 5846 5844 5842 5842 5843 5844 5845 5846 5848 5851 5853 5855 5858 5862 5864 5867 5874 5878 5882 5886
5901 5903 5904 5901 5901 5900 5898 5898 5898 5893 5891 5891 5888 5885 5884 5882 5879 5876 5874 5871 5869 5867 5863 5859 5856 5853 5851 5846 5843 5839 5836 5835 5833 5833 5833 5836 5839 5842 5845 5847 5850 5854 5857 5860 5863 5867 5873 5876 5882
5897 5897 5898 5898 5896 5898 5895 5895 5896 5889 5887 5889 5887 5884 5881 5880 5878 5874 5871 5869 5866 5864 5860 5856 5853 5850 5846 5842 5837 5831 5826 5823 5823 5823 5824 5827 5830 5832 5837 5841 5845 5847 5850 5854 5859 5864 5866 5871 5876
5892 5893 5894 5894 5892 5893 5891 5890 5888 5877 5880 5883 5883 5881 5878 5877 5874 5873 5869 5866 5862 5859 5857 5853 5850 5846 5842 5838 5832 5823 5815 5812 5812 5813 5817 5820 5822 5824 5829 5835 5839 5841 5844 5848 5855 5859 5864 5867 5872
5888 5888 5889 5891 5892 5891 5890 5892 5886 5884 5883 5879 5878 5878 5877 5875 5873 5869 5865 5861 5858 5856 5853 5850 5847 5844 5840 5835 5827 5818 5812 5808 5805 5807 5810 5813 5815 5817 5822 5828 5831 5835 5839 5845 5850 5855 5860 5862 5867
5885 5882 5886 5886 5886 5886 5889 5890 5891 5882 5880 5878 5877 5875 5874 5872 5869 5865 5860 5855 5853 5851 5850 5848 5846 5842 5837 5832 5824 5813 5808 5804 5802 5802 5805 5808 5809 5812 5816 5822 5826 5830 5836 5841 5847 5852 5855 5860 5864
5879 5879 5880 5881 5881 5883 5884 5887 5888 5884 5874 5873 5874 5872 5870 5868 5864 5860 5852 5853 5851 5849 5848 5846 5843 5839 5834 5827 5819 5809 5805 5803 5801 5801 5803 5805 5807 5809 5813 5816 5821 5826 5831 5836 5843 5848 5853 5857 5861
5874 5874 5876 5878 5879 5880 5878 5882 5883 5879 5874 5871 5869 5868 5866 5864 5861 5855 5852 5851 5848 5848 5846 5842 5840 5836 5832 5825 5817 5808 5805 5803 5802 5801 5802 5803 5806 5809 5811 5814 5817 5822 5827 5833 5839 5845 5848 5853 5856
5867 5869 5874 5878 5879 5877 5873 5876 5875 5871 5868 5867 5865 5865 5862 5860 5857 5851 5850 5849 5845 5845 5843 5840 5837 5833 5830 5825 5818 5809 5805 5803 5802 5802 5802 5803 5805 5807 5810 5812 5815 5819 5824 5829 5835 5839 5843 5848 5852
5861 5862 5867 5870 5873 5874 5871 5876 5868 5866 5865 5863 5863 5862 5861 5858 5855 5849 5844 5844 5844 5843 5839 5837 5834 5830 5828 5825 5819 5810 5804 5804 5803 5802 5803 5805 5806 5807 5809 5811 5813 5817 5822 5826 5831 5836 5840 5845 5848
5859 5860 5861 5864 5868 5870 5870 5869 5868 5862 5860 5860 5860 5860 5859 5857 5854 5851 5848 5845 5843 5840 5837 5835 5832 5830 5827 5825 5820 5814 5806 5805 5804 5803 5805 5806 5807 5809 5810 5812 5814 5817 5821 5824 5829 5833 5838 5841 5845
5854 5855 5856 5864 5867 5867 5867 5866 5858 5845 5857 5856 5857 5857 5857 5856 5851 5848 5847 5844 5841 5837 5833 5831 5829 5828 5827 5826 5822 5816 5812 5806 5805 5804 5805 5807 5808 5809 5810 5812 5814 5817 5820 5823 5828 5832 5835 5838 5840
5850 5851 5853 5858 5861 5863 5859 5860 5852 5850 5855 5854 5855 5854 5854 5853 5851 5846 5845 5843 5840 5835 5830 5826 5825 5826 5826 5825 5823 5819 5816 5812 5808 5807 5807 5808 5809 5810 5811 5812 5815 5817 5819 5822 5825 5829 5830 5833 5835
Wind_Speed
15 11 14 14 15 17 12 11 8 9 14 14 7 4 1 4 3 4 6 5 6 7 7 7 7 6 7 12 13 12 9 5 4 10 11 10 8 8 10 9 8 10 12 11 10 12 13 13 11
10 7 12 17 10 18 4 7 6 14 15 12 14 13 8 3 4 5 5 7 5 5 7 8 8 7 7 9 10 10 9 8 9 8 13 12 10 9 10 10 10 11 12 12 8 12 15 13 12
8 6 8 10 5 12 7 3 8 17 16 14 13 13 10 7 5 7 5 3 4 5 6 8 7 7 8 9 10 11 11 9 11 13 14 15 13 11 9 9 10 13 13 11 9 13 15 14 13
7 7 9 15 18 1 6 9 13 16 15 16 17 20 17 11 7 7 6 3 5 7 5 6 8 7 7 8 9 10 11 11 11 13 15 19 19 14 11 9 9 12 14 12 11 13 14 14 13
9 9 11 5 2 3 4 6 11 12 18 13 16 15 19 16 11 8 7 0 5 9 8 7 6 6 6 6 7 7 10 11 11 12 17 17 18 14 13 11 10 11 15 14 13 12 12 14 13
9 9 8 2 3 5 8 8 9 12 15 15 13 16 21 17 13 9 8 5 4 6 11 10 8 6 7 6 5 6 8 12 13 15 16 17 16 19 16 15 12 12 15 16 14 14 12 13 14
8 9 9 7 6 4 4 8 6 8 14 14 14 11 18 18 16 10 9 8 5 4 8 10 10 9 9 8 9 9 11 12 16 17 20 17 16 20 15 16 14 14 15 17 16 15 14 14 14
10 10 5 4 3 4 12 12 15 6 13 16 14 21 19 18 15 10 10 10 9 7 7 8 10 11 11 11 11 11 12 12 14 20 22 19 16 16 20 16 17 16 16 18 17 15 14 14 13
8 10 5 5 3 3 8 4 22 12 12 15 9 10 15 14 12 12 12 11 10 10 9 9 10 12 12 13 13 13 13 12 14 14 14 17 25 24 30 23 19 19 20 18 18 16 15 15 13
6 5 5 4 3 3 8 10 11 11 18 14 8 9 13 14 12 12 14 14 13 10 11 9 10 13 13 15 16 15 16 15 17 17 18 15 17 29 28 32 25 22 22 20 20 20 18 16 13
7 11 1 3 4 3 4 10 10 14 12 34 15 12 15 15 12 14 16 15 16 15 13 13 12 13 14 15 19 20 19 16 12 12 15 12 15 20 29 31 29 26 25 24 23 22 20 17 16
2 4 2 4 5 6 7 14 7 15 15 17 19 18 16 16 14 15 18 17 15 13 12 14 15 13 14 16 19 19 19 18 17 15 16 13 11 18 23 34 32 31 28 28 24 23 20 17 15
3 3 6 7 8 9 10 8 15 17 17 13 15 17 16 16 17 19 19 17 14 15 14 12 14 16 15 16 19 21 21 21 21 20 20 20 17 16 16 31 32 32 29 29 27 25 22 20 17
6 6 8 9 7 8 11 5 12 15 16 11 13 16 16 18 19 19 18 17 18 19 18 18 16 15 15 17 19 21 22 23 24 25 23 21 21 17 18 22 31 31 32 31 29 28 24 21 17
8 8 10 10 8 10 13 15 16 13 8 12 17 20 18 18 19 18 17 16 20 21 22 21 18 17 20 21 20 22 22 21 22 23 21 20 21 20 18 16 29 35 34 35 32 28 23 21 19
11 11 10 9 11 11 11 21 16 15 15 16 16 18 22 19 20 14 15 15 21 21 20 20 18 16 17 19 20 23 24 23 22 23 22 20 20 21 18 21 23 38 36 35 32 31 22 23 19
15 8 11 14 10 13 13 8 16 15 13 15 18 19 24 21 20 12 14 16 18 20 21 19 18 18 19 18 17 20 25 28 28 28 29 27 25 23 21 21 22 33 33 41 37 30 26 24 21
8 14 14 16 17 14 14 12 19 15 13 15 20 24 25 21 18 15 15 17 18 16 18 18 17 18 20 20 23 26 29 29 31 31 33 32 30 26 24 24 23 30 32 36 39 38 31 26 23
20 18 19 18 18 15 11 16 12 18 14 16 22 27 23 19 21 17 15 17 16 15 15 16 16 18 22 24 25 29 30 30 32 34 33 38 36 32 28 27 24 29 32 35 40 36 36 28 26
17 17 17 20 21 16 15 13 12 23 11 14 21 24 26 22 21 20 17 17 13 14 13 16 18 20 24 27 28 32 33 36 34 30 22 27 32 37 33 27 28 27 29 36 38 35 35 27 31
17 17 17 17 21 18 19 16 13 20 10 23 19 22 25 23 22 17 16 11 10 11 13 15 19 23 25 26 28 38 32 27 22 23 28 28 27 32 35 31 29 27 29 34 42 39 32 34 29
18 19 20 19 18 11 18 13 14 14 17 29 14 17 22 20 15 19 13 17 11 10 11 13 17 21 25 29 31 33 17 17 19 20 24 26 24 27 33 32 30 30 30 34 35 36 34 27 25
18 26 21 21 19 15 15 11 7 21 21 7 19 18 17 21 19 20 20 16 21 10 13 15 18 25 27 32 33 28 18 13 12 13 20 22 21 25 30 31 31 32 34 39 38 34 31 26 28
22 25 24 21 17 16 15 10 9 13 20 27 19 17 19 19 16 21 26 24 18 16 16 18 21 27 30 35 33 23 11 6 5 7 13 16 16 19 24 26 29 32 35 37 40 36 31 31 28
24 25 19 11 12 13 17 15 14 19 24 21 20 16 19 20 20 25 26 20 14 15 15 20 22 25 29 34 31 24 8 3 3 4 8 12 15 19 21 23 26 30 34 36 39 36 35 35 32
23 21 15 11 11 18 17 12 15 18 22 12 10 13 21 20 20 26 23 16 11 15 16 20 23 26 26 30 29 26 5 4 4 5 6 9 11 15 17 19 24 28 31 32 38 35 35 33 31
24 20 13 20 17 14 14 12 18 20 10 8 5 12 13 18 21 22 26 12 12 18 20 19 23 28 21 25 26 26 7 5 3 5 7 6 10 13 15 18 21 25 28 28 32 32 28 32 24
17 15 15 17 15 17 18 12 19 20 15 6 8 8 11 15 17 18 17 18 17 15 19 19 21 21 19 20 24 24 19 3 2 6 8 6 6 9 12 13 18 20 23 29 31 32 33 31 24
16 15 13 13 13 16 17 17 35 7 13 11 8 12 13 15 17 17 15 17 21 20 26 20 18 16 15 16 20 22 21 20 2 3 5 7 3 7 9 10 12 19 22 24 27 28 28 30 30
18 15 15 18 17 16 26 19 33 11 14 18 12 17 17 17 17 18 18 16 19 22 24 14 9 10 12 16 17 19 20 19 17 2 3 6 6 7 11 10 13 15 19 24 26 31 32 27 26
Wind_Direction
97 91 75 67 79 84 81 59 56 49 33 44 60 80 50 36 19 297 263 262 259 234 217 232 234 238 232 230 235 235 241 203 231 224 221 206 203 177 163 158 159 159 155 160 158 165 171 168 165
106 84 75 60 52 70 34 43 13 9 9 12 31 44 27 11 320 330 316 255 270 235 207 203 207 218 234 239 239 243 235 239 238 215 209 200 213 195 177 160 154 161 153 160 161 165 170 170 172
125 117 63 97 33 67 8 3 355 355 349 358 31 27 30 17 335 353 354 272 235 217 204 201 213 217 231 235 239 239 244 240 242 227 208 209 208 217 191 173 162 159 157 157 153 160 169 172 177
115 109 95 24 72 186 357 324 345 12 353 353 21 334 1 9 342 7 9 325 230 198 198 193 191 208 231 240 234 235 241 243 249 247 217 210 198 213 214 197 178 165 163 163 159 165 169 176 180
109 106 110 126 290 22 339 309 339 6 328 345 339 340 358 353 344 340 7 211 237 219 197 201 192 201 212 225 234 232 238 237 245 235 218 213 206 206 216 212 193 179 170 171 171 174 171 176 184
125 100 155 48 86 15 345 359 329 340 342 349 349 336 342 354 355 3 7 12 221 221 214 211 213 207 207 228 234 232 228 227 232 218 213 209 207 205 212 216 204 190 181 179 177 179 176 182 186
96 123 26 16 339 306 333 340 359 301 341 346 355 307 340 346 354 3 11 348 336 245 228 220 224 228 240 247 247 239 234 232 223 220 209 208 205 203 217 220 212 201 190 184 185 182 183 180 184
95 118 139 199 2 29 346 353 321 358 288 337 345 342 338 334 345 350 4 348 328 302 262 242 235 244 251 256 252 251 235 226 230 224 222 227 214 230 228 236 215 203 201 190 188 189 188 188 188
103 100 164 111 211 45 296 322 318 338 328 344 334 340 342 337 343 352 342 342 340 312 286 266 262 254 256 257 250 254 251 235 233 221 223 246 248 235 234 240 228 209 207 195 195 193 196 195 194
64 356 127 233 244 258 306 312 308 334 298 318 335 345 346 332 336 348 344 331 330 318 301 290 270 266 262 264 262 261 262 258 250 280 248 294 300 238 231 231 236 217 208 205 198 199 200 197 194
77 107 228 282 263 256 267 339 300 304 320 304 7 341 349 341 347 343 342 337 333 326 301 286 281 271 265 263 270 267 264 264 259 268 278 296 327 233 237 230 234 218 211 209 205 202 205 202 198
90 65 5 2 348 310 294 265 271 296 294 297 319 335 331 343 347 345 340 346 340 330 308 278 279 277 272 265 269 268 266 266 269 274 289 287 285 249 279 236 225 215 213 209 210 204 203 199 197
323 325 316 329 353 347 299 276 281 278 297 319 314 322 321 340 348 339 344 346 343 343 339 307 290 281 283 281 273 271 266 261 264 269 276 279 270 260 301 230 222 214 213 213 208 210 202 197 198
292 296 311 329 339 317 333 285 284 279 303 304 314 320 319 347 344 339 342 341 351 349 343 335 321 298 284 278 279 278 272 266 267 268 270 270 271 263 259 239 215 218 207 216 209 210 208 205 200
275 299 311 333 313 298 325 316 257 328 317 316 309 311 317 339 339 337 338 358 357 350 340 329 316 306 307 296 287 283 278 271 266 267 269 264 260 257 251 252 222 212 207 215 209 207 210 209 206
275 290 308 291 310 300 319 300 354 330 300 296 306 310 312 329 333 339 351 355 3 357 345 333 337 322 310 300 290 281 275 268 266 266 269 265 256 258 253 245 234 213 206 217 216 201 202 207 208
266 290 249 264 299 292 308 255 300 314 328 313 303 313 319 326 330 330 343 350 354 357 353 347 343 335 326 316 302 289 281 276 270 267 265 265 258 252 251 251 242 215 220 215 222 217 198 204 204
271 283 264 270 289 298 307 328 308 307 314 300 311 312 316 324 327 326 322 337 349 357 358 354 341 326 314 302 296 290 286 278 271 268 263 260 259 252 248 246 237 219 221 218 218 222 214 205 211
238 250 247 260 285 288 302 278 307 287 299 302 305 313 314 319 321 320 321 327 329 351 1 357 344 322 313 308 306 305 293 283 270 270 263 250 254 254 247 246 238 227 224 227 219 218 223 206 214
261 257 263 272 279 295 302 289 274 281 283 294 295 304 306 307 306 313 311 317 327 339 347 352 343 331 322 311 312 312 300 288 268 268 250 251 253 248 246 243 236 231 229 222 216 218 222 212 217
259 260 263 263 282 305 306 330 281 250 309 314 304 297 300 308 317 307 306 298 303 330 343 345 337 334 328 324 326 327 310 295 274 249 242 249 258 240 235 235 234 231 228 214 215 219 225 215 214
262 263 261 271 286 301 268 294 304 289 295 310 307 297 299 308 303 307 290 286 276 313 334 336 329 339 337 327 334 335 312 297 270 251 240 253 252 238 229 231 233 231 224 211 212 214 220 214 223
264 268 276 280 287 270 259 294 257 287 277 302 302 296 291 297 288 295 285 283 280 306 319 334 334 339 340 332 337 333 306 286 284 248 244 245 240 235 229 228 228 226 222 215 216 216 218 218 224
263 271 274 276 272 262 279 233 273 261 291 294 302 296 290 296 288 289 277 290 285 314 329 331 328 334 339 339 346 342 329 287 264 251 238 231 230 224 224 223 222 219 218 216 215 216 214 222 223
273 273 270 269 271 271 239 252 263 278 282 286 297 285 278 299 295 282 288 292 318 326 335 334 326 323 332 340 350 351 336 322 291 247 225 217 223 224 218 216 213 212 215 215 209 216 216 222 225
275 267 230 237 269 249 247 272 272 261 288 300 282 275 293 305 302 295 317 334 326 313 319 321 317 329 331 342 351 3 344 337 319 226 207 224 225 210 211 213 208 205 206 211 208 212 217 223 224
281 268 247 229 245 244 300 285 289 275 281 285 270 301 310 313 320 316 327 320 304 301 309 305 318 320 334 346 351 5 3 342 38 141 174 207 212 208 213 213 204 204 207 214 214 218 221 225 223
251 261 226 227 225 242 263 246 262 280 281 277 280 315 314 314 317 310 325 320 299 322 320 309 315 318 336 354 356 7 29 68 93 144 152 155 169 187 189 193 199 203 212 218 213 214 217 221 227
248 235 228 214 246 245 255 265 279 150 282 274 266 290 304 312 318 317 317 319 314 325 324 316 310 305 331 355 359 11 8 23 298 107 170 136 167 174 179 198 199 206 215 217 215 215 220 225 230
226 237 216 219 238 244 240 264 273 228 269 279 262 278 297 315 314 314 320 310 321 328 334 316 304 285 327 353 359 5 10 16 24 85 132 206 248 219 201 200 206 212 220 222 217 219 227 228 228